Home > Weather > Mansfield > Past weeks

Flag for U.S.A. Weather for the Past 2 Weeks in Mansfield, Texas, U.S.A.

Now
40 °F

Clear.


Feels Like: 40 °F
Forecast: 36 / 53 °F
Wind: No wind

Location: Burleson-Rendon

Current Time: Feb 6, 2016 at 4:03:41 AM

Latest Report: Feb 6, 2016 at 3:35 AM


Visibility: 10 mi

Pressure: 30.22 "Hg

Humidity: 79%

Dew point: 34 °F

Location of MansfieldLocation

Historic Weather in Mansfield — Graph

°F

Mansfield Temperature Yesterday

Maximum temperature yesterday: 57 °F (at 1:50 PM)
Minimum temperature yesterday: 31 °F (at 6:15 AM)
Average temperature yesterday: 42 °F

High & Low Weather Summary for the Past Weeks

 TemperatureHumidityPressure
High79 °F (Jan 30, 3:51 PM)100% (Jan 23, 7:58 AM)30.53 "Hg (Jan 23, 7:58 AM)
Low25 °F (Feb 4, 6:50 AM)17% (Feb 2, 3:55 PM)29.53 "Hg (Feb 1, 5:54 PM)
Average46 °F62%30.08 "Hg
* Reported Jan 22 2:15 AM — Feb 6 2:55 AM, Mansfield, Weather by CustomWeather, © 2016

Note: Actual official high and low records may vary slightly from our data, if they occured in-between our weather recording intervals... More about our weather records

Advertising

Mansfield Weather History for the Previous 24 Hours

 ConditionsComfort  
Time TempWeatherWind HumidityBarometerVisibility
2:55 AM
Sat, Feb 6
40 °FClear.No wind78%30.22 "Hg10 mi
2:15 AM40 °FClear.6 mph79%30.23 "Hg10 mi
1:55 AM40 °FClear.7 mph77%30.23 "Hg10 mi
1:35 AM41 °FClear.7 mph76%30.23 "Hg10 mi
1:15 AM43 °FClear.7 mph73%30.24 "Hg10 mi
12:55 AM43 °FPassing clouds.7 mph75%30.24 "Hg10 mi
12:15 AM45 °FRain. Overcast.9 mph68%30.28 "Hg10 mi
11:55 PM
Fri, Feb 5
47 °FLight rain. Overcast.8 mph57%30.30 "Hg10 mi
11:35 PM47 °FLight rain. Mostly cloudy.8 mph48%30.30 "Hg10 mi
11:15 PM48 °FMostly cloudy.7 mph39%30.29 "Hg10 mi
10:55 PM47 °FPartly cloudy.8 mph41%30.28 "Hg10 mi
10:15 PM46 °FPassing clouds.10 mph43%30.27 "Hg10 mi
9:55 PM45 °FPassing clouds.9 mph44%30.27 "Hg10 mi
9:35 PM45 °FClear.9 mph44%30.27 "Hg10 mi
9:15 PM45 °FClear.9 mph44%30.27 "Hg10 mi
8:55 PM46 °FClear.9 mph43%30.27 "Hg10 mi
7:55 PM48 °FPassing clouds.9 mph36%30.29 "Hg10 mi
6:46 PM48 °FPassing clouds.6 mph37%30.31 "Hg20 mi
5:53 PM54 °FSunny.8 mph30%30.30 "Hg20 mi
4:52 PM55 °FSunny.15 mph31%30.29 "Hg20 mi
3:50 PM57 °FSunny.14 mph29%30.29 "Hg20 mi
2:52 PM57 °FSunny.13 mph29%30.31 "Hg20 mi
1:50 PM57 °FSunny.12 mph29%30.32 "Hg20 mi
12:49 PM55 °FSunny.14 mph31%30.36 "Hg20 mi
11:57 AM52 °FSunny.15 mph32%30.40 "Hg20 mi
10:59 AM52 °FSunny.15 mph35%30.42 "Hg20 mi
9:50 AM48 °FSunny.15 mph40%30.44 "Hg20 mi
8:49 AM43 °FSunny.10 mph57%30.44 "Hg20 mi
7:50 AM34 °FSunny.3 mph70%30.45 "Hg20 mi
6:50 AM32 °FClear.No wind75%30.44 "Hg20 mi
6:15 AM31 °FClear.3 mph73%30.43 "Hg10 mi
5:55 AM34 °FClear.3 mph67%30.43 "Hg10 mi
5:35 AM34 °FClear.3 mph67%30.42 "Hg10 mi
5:15 AM35 °FClear.5 mph65%30.42 "Hg10 mi
4:55 AM33 °FClear.3 mph71%30.42 "Hg10 mi
4:15 AM35 °FClear.5 mph65%30.41 "Hg10 mi
Weather by CustomWeather, © 2016

See weather overviewHow to use our weather pages